Theta_e
320 320 319 317 317 318 318 319 318 319 319 319 320 321 322 323 324 325 324 325 326 326 326 326 327 328 327 327 328 329 330 332 332 332 332 331 331 330 330 330 330 330 329 329 329 329 330 329 329 329 329 330 330 330 330 331 331 331 330 329 329 328 326 325 326 327 327 327 328 328 329 330 330 328 328 327 326 325 323 321 319 320 316 311 309 310
320 319 317 316 316 317 318 319 319 319 319 320 321 321 322 322 323 324 324 324 325 325 325 326 327 328 327 326 328 329 330 331 332 331 330 329 330 330 330 331 330 329 328 328 329 329 329 328 329 329 329 329 329 328 328 328 329 329 328 327 328 328 327 326 325 326 327 327 327 327 327 327 328 328 328 328 327 325 322 320 319 319 318 314 312 312
319 318 316 317 316 318 319 319 319 319 319 320 320 321 322 322 323 324 323 324 324 324 325 325 326 327 327 326 328 329 329 329 330 330 329 329 330 330 330 330 329 328 328 327 327 328 328 327 326 327 328 328 328 328 327 327 327 326 326 326 326 327 327 328 327 327 328 328 327 327 327 325 325 326 326 326 325 323 321 321 321 319 318 317 314 314
317 317 317 317 317 317 319 318 319 319 318 320 320 319 321 322 323 324 323 324 324 324 324 324 325 326 326 326 327 328 328 328 329 329 329 330 330 330 329 329 329 329 328 327 326 327 327 326 324 324 325 325 325 327 327 327 326 326 325 325 326 328 328 329 329 328 328 328 328 328 328 326 325 325 323 322 323 324 324 323 323 321 319 319 316 315
316 317 318 317 317 317 318 317 318 318 317 318 320 319 321 322 323 323 323 324 324 323 323 323 325 326 326 326 327 327 328 328 328 328 328 329 329 329 329 329 329 329 328 328 326 324 323 323 321 321 322 322 322 325 327 327 327 327 326 325 325 327 328 329 329 329 328 329 329 328 328 329 328 327 325 325 326 327 327 326 326 325 324 322 321 320
316 318 318 317 317 317 318 317 317 318 317 318 321 320 322 323 322 324 323 323 325 324 323 322 325 327 327 326 326 326 326 326 327 328 327 327 327 328 328 327 328 328 327 326 326 324 322 322 321 321 321 321 320 321 323 325 326 327 326 325 324 325 326 327 327 328 328 330 330 329 329 330 331 330 329 327 326 325 325 326 326 326 325 323 322 321
317 318 318 317 317 318 319 318 317 318 316 318 321 321 323 322 320 323 324 323 324 324 323 321 324 327 326 326 326 325 325 325 325 326 327 326 326 326 326 326 326 326 326 326 325 325 324 323 323 322 321 321 319 318 319 321 323 325 325 325 325 324 323 323 323 324 325 328 329 329 329 330 329 330 330 327 324 322 322 321 322 324 324 324 322 321
318 318 318 317 317 318 318 318 318 318 317 318 320 321 322 320 318 321 323 322 324 323 323 323 322 325 326 326 325 324 325 325 324 325 326 325 325 325 325 325 325 325 325 325 324 325 324 323 324 323 321 320 319 318 318 318 319 321 323 324 325 324 323 322 323 324 324 325 326 328 328 329 329 330 330 329 327 326 325 323 322 323 325 326 325 324
318 317 317 317 318 317 318 318 318 318 318 319 321 321 320 320 319 321 322 322 322 322 323 323 322 325 326 325 324 324 325 325 324 324 324 325 325 325 324 324 324 324 324 324 324 323 323 323 323 322 321 319 318 318 318 318 318 318 320 321 323 323 323 323 323 324 324 324 324 325 325 327 328 328 329 329 328 328 327 327 326 325 326 327 327 327
317 317 316 317 317 317 317 318 317 318 319 320 321 321 320 320 320 321 322 321 320 323 324 322 322 324 326 325 324 324 325 325 325 323 324 325 324 324 324 323 323 323 323 322 323 323 322 322 322 322 321 319 317 317 317 317 317 317 319 319 319 320 321 321 322 323 323 323 323 324 324 324 325 326 326 327 327 327 326 326 327 329 328 327 327 326
317 317 317 316 316 317 317 318 319 319 320 321 320 321 320 320 320 321 321 320 320 322 322 321 322 323 325 325 324 325 325 324 324 323 324 325 324 323 323 322 322 321 322 322 321 322 321 321 321 321 320 320 319 318 318 317 316 316 318 320 319 318 319 320 321 322 322 322 322 322 323 323 324 325 325 325 326 326 325 325 325 326 327 327 327 326
317 317 316 316 316 317 318 318 319 320 321 320 320 319 319 319 320 320 320 319 320 322 323 321 321 322 324 325 324 324 323 323 324 323 324 324 323 322 322 321 321 321 321 321 321 321 321 320 320 320 320 320 320 320 320 319 317 317 318 319 319 318 319 320 321 321 322 321 322 322 322 322 322 323 324 324 324 324 325 325 324 324 324 324 325 326
317 317 317 317 317 317 318 318 318 319 320 320 319 319 317 317 319 319 319 320 320 322 322 321 321 322 324 324 323 323 322 322 325 324 323 323 322 322 321 321 321 320 320 320 320 320 320 319 319 319 319 320 320 320 320 319 318 318 316 318 319 318 318 319 320 320 320 320 320 320 321 321 321 321 321 322 323 323 323 322 322 323 323 322 322 324
316 316 317 317 317 317 317 317 317 318 319 319 319 318 316 316 317 318 319 320 322 322 321 320 321 322 323 323 323 323 322 323 324 324 323 323 322 322 320 320 320 320 319 319 319 319 319 318 318 318 319 319 319 319 320 319 319 319 317 317 319 318 316 316 316 316 316 317 318 318 318 319 319 319 319 320 321 320 321 320 321 321 321 321 321 321
315 316 316 316 316 316 316 316 317 318 318 318 319 318 317 316 317 318 318 319 321 322 320 321 322 322 323 324 322 323 323 323 324 323 322 322 321 321 320 319 319 319 319 318 319 319 318 318 317 318 318 318 319 319 318 318 318 319 319 319 319 318 317 316 315 314 314 314 315 315 316 317 316 317 317 317 318 319 319 319 319 319 320 320 320 319
316 316 316 316 316 316 316 317 317 318 318 318 318 318 318 317 317 319 321 322 321 320 320 321 321 321 323 323 322 323 324 323 323 322 322 321 320 320 319 318 318 318 318 318 319 319 318 318 317 318 318 317 317 317 317 317 318 318 318 319 318 318 318 317 316 315 314 313 314 313 314 315 315 315 316 316 317 317 318 318 318 318 318 319 319 319
316 316 316 317 316 315 316 317 317 317 317 318 317 318 318 318 319 318 320 322 320 319 319 320 321 321 322 322 321 322 322 322 322 322 321 321 319 319 318 317 318 318 318 318 318 318 317 317 317 317 317 316 316 316 316 317 318 318 318 318 318 318 317 317 316 316 315 314 314 314 313 313 313 313 314 314 315 316 317 317 318 318 318 317 317 318
317 317 316 316 316 315 315 317 318 318 319 318 317 318 318 318 319 318 318 319 318 319 320 320 320 321 322 322 322 321 321 321 321 321 321 320 319 318 317 317 317 317 318 318 318 318 317 316 316 316 315 315 315 315 315 317 317 317 316 317 317 317 317 316 315 315 315 315 315 315 314 313 313 313 312 311 311 313 315 316 317 317 317 317 317 317
318 317 316 316 316 316 316 316 316 317 319 319 318 319 319 318 319 318 318 319 317 318 321 319 320 321 321 322 322 322 322 322 320 320 320 320 318 317 317 317 317 316 318 318 317 317 316 316 315 315 315 315 314 314 314 315 315 315 315 315 315 315 316 315 315 314 315 314 315 315 314 314 313 313 313 311 310 310 312 313 314 315 316 317 317 317
319 318 317 316 316 317 316 315 316 317 318 318 318 319 320 319 319 318 318 318 317 317 319 320 320 320 319 322 322 322 322 322 321 320 320 319 317 317 316 316 316 317 317 317 317 316 316 316 315 314 314 314 314 314 313 313 314 314 314 313 313 314 315 315 314 314 314 314 314 313 313 313 313 313 314 313 312 311 312 311 311 312 313 314 315 315
319 319 317 317 316 316 315 314 315 316 317 318 318 318 319 319 319 319 318 318 317 316 316 319 319 318 319 321 321 321 321 321 321 320 319 319 317 317 316 316 316 317 317 317 317 316 316 315 315 314 314 314 314 313 313 313 313 313 312 312 313 314 315 314 314 313 313 313 313 313 312 312 313 313 313 313 313 313 313 312 311 310 310 311 312 313
319 319 317 317 317 315 314 314 315 316 317 318 319 319 319 319 318 318 318 318 318 316 316 317 318 319 320 320 320 321 321 321 321 320 319 318 317 316 316 317 317 317 317 318 317 317 316 315 314 314 314 314 314 313 312 312 312 312 312 312 312 313 312 312 312 312 312 312 312 312 312 312 313 313 313 313 313 313 313 313 313 311 310 310 312 312
320 320 318 317 316 314 314 315 316 316 316 317 319 319 319 320 320 318 318 319 318 317 317 315 317 320 321 321 321 321 320 320 320 319 319 318 317 316 316 317 317 317 317 318 318 317 316 315 314 314 314 314 314 314 313 313 312 312 312 311 311 312 311 311 311 311 311 311 311 311 311 311 311 312 312 312 313 313 312 313 313 313 312 312 312 313
321 321 318 316 315 315 314 315 316 317 317 317 317 318 319 320 320 319 319 319 317 317 318 315 316 320 321 322 323 321 320 320 319 319 318 318 317 317 317 316 317 317 318 317 318 317 316 315 315 314 314 314 313 314 313 313 312 312 312 311 311 311 311 312 311 311 311 311 311 311 311 311 311 311 311 311 312 313 312 312 313 313 312 312 312 312
319 318 318 317 315 315 315 316 316 316 316 316 316 316 317 318 319 318 318 318 316 316 318 316 315 318 320 321 322 321 320 320 319 318 318 318 318 318 317 317 317 317 318 318 318 317 316 315 314 314 313 313 313 313 313 313 312 311 311 311 311 311 312 312 311 310 310 310 311 311 311 311 310 310 310 310 310 312 312 312 312 312 312 312 311 311
319 319 320 318 314 314 316 316 316 315 315 315 316 316 315 316 318 318 316 315 313 315 318 315 314 317 319 319 320 320 320 320 319 319 318 318 319 318 317 317 317 317 318 318 318 317 317 316 315 314 314 314 313 312 312 312 311 311 311 311 312 312 311 310 310 310 310 310 311 311 311 310 310 309 310 310 310 311 311 312 312 312 311 311 310 310
320 319 320 320 317 316 317 317 317 317 317 316 316 316 316 316 318 318 314 313 314 316 316 315 315 316 318 318 319 319 319 319 320 320 319 319 319 318 318 318 317 317 317 317 317 317 317 316 315 315 314 314 313 313 312 312 312 311 311 312 312 311 311 310 309 309 310 310 310 310 310 309 309 309 309 309 310 310 311 311 311 311 311 310 310 310
319 317 319 322 320 318 319 318 318 319 319 317 317 317 317 317 318 318 315 315 316 316 316 316 317 317 316 317 317 318 319 319 320 319 319 318 318 318 318 318 318 318 317 317 317 317 316 316 315 315 315 315 314 313 313 312 312 311 312 312 311 310 310 310 309 309 309 309 309 310 310 309 309 309 309 309 309 309 310 310 310 310 310 310 310 310
320 317 319 322 319 319 320 319 319 319 318 318 317 317 317 317 318 319 317 316 317 316 316 317 317 317 317 316 316 317 318 318 319 319 318 318 318 317 318 318 318 317 317 317 317 316 316 316 315 315 315 315 314 313 313 312 312 311 311 311 310 309 309 309 309 309 309 309 309 309 309 309 309 309 309 309 309 308 309 309 309 309 309 309 309 309
319 317 319 321 319 319 319 318 319 319 318 318 317 317 317 317 317 318 318 318 318 317 317 317 317 317 317 316 316 318 318 318 318 318 319 318 317 317 317 317 317 317 316 316 316 316 316 315 315 315 315 314 314 313 313 312 311 311 311 310 310 309 308 308 308 308 308 308 308 308 308 308 308 308 308 308 308 308 308 308 308 308 308 308 309 309
318 317 319 320 318 318 319 319 319 319 317 317 317 317 317 318 318 318 318 319 318 317 317 318 317 317 317 316 316 317 318 317 317 318 318 318 317 317 317 316 316 316 315 315 315 315 315 315 315 315 314 314 314 313 313 312 311 311 310 309 309 308 308 308 308 308 307 307 307 308 308 308 307 307 307 307 308 308 308 308 307 307 307 307 308 309
318 317 318 319 316 316 318 317 317 318 317 316 317 317 317 318 318 319 319 319 318 318 319 318 317 317 317 316 316 316 317 316 316 316 317 317 317 317 316 316 316 315 315 315 315 314 315 315 315 314 314 314 314 313 312 311 311 311 310 308 308 308 308 307 307 307 307 307 307 307 307 307 307 307 307 307 307 307 307 307 307 307 307 307 308 309
318 316 316 316 314 314 316 316 316 317 316 315 317 318 318 318 319 318 318 319 319 318 317 317 316 316 317 316 315 316 317 316 316 316 317 317 317 316 316 316 315 315 316 315 315 314 314 314 314 314 314 314 313 312 312 311 311 310 309 308 308 308 308 307 307 307 307 307 307 307 307 307 307 306 306 306 307 307 307 307 307 307 308 308 308 309
319 318 316 316 314 314 316 317 316 315 315 316 319 320 319 319 319 319 318 319 319 319 317 316 316 317 317 316 316 316 317 317 317 317 317 317 316 316 316 315 315 315 315 315 315 315 314 314 314 314 314 314 313 312 312 311 311 310 309 308 308 308 307 307 307 307 307 306 306 306 306 306 306 306 306 306 307 307 307 307 308 308 308 308 308 308
320 318 317 317 315 315 315 316 316 315 316 319 321 320 320 320 319 319 319 318 318 318 318 317 316 316 316 316 316 316 317 317 318 317 317 317 317 316 316 315 315 315 315 315 315 315 314 314 314 314 314 313 313 312 312 311 310 309 308 308 308 308 307 307 307 307 306 306 306 306 306 306 306 306 306 306 307 307 307 307 308 308 308 308 307 307
319 318 317 317 316 315 315 314 315 316 319 320 320 318 318 318 319 318 318 317 317 318 317 317 316 316 316 316 316 317 317 317 316 316 316 317 317 316 315 315 315 315 315 315 315 315 315 314 314 314 314 313 313 312 311 310 309 308 308 308 308 308 307 307 307 307 306 306 306 306 306 306 306 306 306 306 307 307 307 307 308 308 308 307 306 306
319 318 317 317 316 316 315 314 315 317 318 319 319 319 318 319 320 318 316 316 318 317 316 316 316 316 316 315 316 317 317 316 315 315 316 316 315 315 315 314 315 314 314 315 315 315 314 314 314 314 313 313 313 312 311 310 309 308 307 308 308 308 307 307 307 306 306 306 305 305 305 305 305 306 306 306 306 307 307 307 307 307 307 306 306 306
318 318 318 317 316 316 315 315 316 315 315 316 319 321 320 319 319 318 317 317 317 316 316 316 316 316 315 316 316 317 316 315 315 315 315 314 314 314 314 314 315 314 314 314 314 314 314 314 314 313 312 312 312 312 311 310 308 307 307 308 307 307 306 307 307 306 305 305 305 304 304 305 305 305 306 306 306 306 306 306 307 306 306 306 306 307
318 318 318 317 316 316 316 315 315 315 315 317 320 321 320 318 318 318 317 316 316 316 315 315 315 315 315 315 316 316 316 314 314 315 315 313 313 314 313 313 314 314 313 314 314 313 314 314 313 313 312 312 312 311 310 309 308 307 308 308 307 307 306 307 307 306 305 305 304 304 304 305 305 305 305 305 305 306 306 306 306 306 305 305 306 307
319 318 317 317 316 316 316 315 315 315 316 319 321 319 317 316 317 318 317 315 316 316 315 315 315 315 315 316 316 315 315 314 314 315 314 313 313 314 313 313 314 314 314 314 314 313 314 314 313 313 312 312 312 311 310 308 308 307 308 308 307 307 307 307 306 305 305 304 304 304 304 305 305 305 305 305 305 305 305 305 306 306 305 304 306 306
319 318 317 316 316 316 316 315 315 316 318 320 320 318 315 316 317 317 316 315 315 316 315 315 315 315 316 316 316 315 314 314 314 315 314 313 314 314 314 313 313 313 313 314 314 313 313 313 313 312 311 311 310 310 309 308 307 307 307 307 307 307 306 306 305 304 304 304 304 304 304 304 304 305 305 305 304 305 305 305 305 305 305 305 305 305
318 317 317 317 315 315 316 315 314 315 318 320 319 317 315 316 317 316 316 316 316 316 316 316 315 316 317 316 315 315 315 315 315 315 314 314 314 314 314 314 314 313 313 313 312 312 312 313 313 312 311 311 310 309 308 307 307 307 307 307 307 307 306 305 304 304 304 303 303 303 303 303 304 304 304 304 304 304 304 305 305 305 305 305 305 305
317 316 315 316 316 315 315 315 314 315 317 318 317 315 315 316 317 316 316 316 316 316 317 316 316 316 316 315 315 315 315 315 315 315 314 315 315 314 314 314 314 314 314 313 313 312 312 312 312 312 311 310 310 309 308 307 306 306 307 306 306 306 306 305 304 304 303 303 303 303 303 303 303 304 304 304 304 304 304 304 305 305 305 305 305 305
317 315 314 316 317 315 314 315 315 316 318 317 316 316 317 317 318 317 317 316 316 316 316 316 316 316 316 315 315 315 315 315 315 314 314 314 314 314 314 314 314 314 314 314 314 313 311 311 311 311 310 310 310 309 308 307 306 306 306 306 306 306 305 305 304 304 304 303 303 303 303 302 302 302 302 302 303 304 304 304 304 304 304 304 304 305
318 318 317 316 317 316 315 316 317 319 319 317 316 317 320 319 317 316 316 317 317 316 316 316 316 316 316 315 315 315 315 314 314 314 313 313 314 314 314 314 314 314 313 313 313 312 311 310 311 310 310 310 310 309 307 306 306 306 305 306 305 305 305 305 304 304 304 303 303 303 303 302 302 302 301 301 302 303 303 303 304 304 304 304 304 304
318 318 317 316 317 318 317 317 318 318 318 317 316 317 319 319 316 314 315 317 317 316 316 316 316 316 316 315 315 314 314 314 313 313 313 313 314 314 314 314 313 313 312 312 312 311 310 310 309 309 309 310 309 309 307 307 306 306 306 306 305 305 305 305 304 304 304 304 304 303 303 303 302 301 300 301 301 301 301 302 303 303 304 304 304 304
318 317 316 317 317 317 316 317 319 318 318 318 317 316 317 318 316 315 315 316 317 317 317 316 316 316 316 315 315 314 314 314 314 313 314 314 314 314 314 314 314 313 312 312 311 310 309 310 310 310 310 310 310 309 307 307 307 307 306 306 305 305 305 305 305 305 304 304 304 303 303 303 302 301 301 301 300 300 300 301 301 302 303 303 303 303
318 315 315 317 317 317 316 318 319 318 317 317 316 316 316 317 317 317 317 316 316 316 316 315 316 316 316 316 315 315 314 314 314 313 313 313 313 314 314 313 313 313 313 312 311 310 309 310 310 310 310 310 310 309 308 308 308 307 307 306 305 305 305 305 305 305 305 304 304 304 303 303 301 301 301 301 300 300 300 300 300 300 301 302 302 302
317 315 316 318 318 317 317 318 317 316 315 316 316 317 317 316 316 317 317 315 314 314 314 315 315 315 315 315 316 316 315 314 313 314 313 313 313 314 314 313 313 313 313 312 311 310 309 310 309 309 310 310 310 309 309 308 307 307 307 306 305 305 305 305 305 305 305 305 304 304 304 303 301 301 301 300 300 300 299 299 299 299 300 301 301 301
316 316 318 318 316 316 317 318 317 315 314 315 316 318 317 315 313 314 315 315 314 314 315 316 316 315 315 314 315 315 315 314 313 314 314 313 314 314 314 314 314 313 313 312 311 309 309 309 309 309 309 309 309 309 309 308 307 307 307 306 305 305 305 305 305 305 305 304 304 304 304 303 302 301 301 301 300 300 299 299 299 299 299 300 300 300
317 317 318 317 316 317 317 317 316 315 314 315 316 317 317 315 313 313 316 316 316 316 315 316 317 316 315 315 314 313 313 314 314 314 314 314 314 314 314 314 313 313 313 312 311 310 310 309 309 309 309 309 308 308 309 308 308 307 307 307 306 305 306 305 305 305 304 304 304 304 304 303 302 301 301 301 301 300 299 299 298 298 299 298 298 299
Wind_Speed
2 1 4 5 6 6 6 6 5 4 2 3 3 5 8 10 10 11 11 10 13 14 13 14 14 12 10 8 8 10 11 12 13 14 15 15 16 18 18 17 17 18 16 14 13 13 12 12 11 9 8 7 6 6 5 5 6 5 4 4 4 5 5 5 5 6 6 5 4 3 3 3 3 3 4 4 5 5 5 6 7 7 7 7 6 5
1 3 7 6 6 5 4 3 3 3 3 4 5 7 7 7 6 7 7 7 10 12 13 15 16 13 10 8 6 7 9 11 12 12 14 16 17 16 16 16 18 18 17 16 16 15 15 15 14 12 11 10 8 8 8 7 7 6 5 4 4 5 6 6 5 5 6 6 5 5 5 4 4 4 4 4 5 5 5 6 6 6 7 7 7 6
3 6 7 5 3 2 1 1 2 4 3 2 4 5 5 6 6 7 9 10 10 10 11 14 15 13 12 9 7 7 8 9 10 10 11 14 15 14 14 14 15 17 17 18 17 15 15 17 17 16 13 12 11 11 11 12 11 9 7 5 4 5 6 6 6 6 6 7 7 7 7 6 6 7 7 6 6 5 5 5 5 6 6 6 6 5
4 7 7 4 2 1 2 2 1 3 2 2 3 4 5 8 7 5 7 9 9 9 13 16 14 11 11 11 10 10 10 10 10 10 11 13 14 14 14 14 14 15 16 16 17 16 15 19 22 21 17 15 14 12 11 12 13 13 12 9 6 5 6 6 7 7 7 8 8 7 8 7 7 7 7 7 7 6 5 5 6 6 6 6 5 5
8 7 5 2 1 2 2 2 1 0 3 5 5 5 5 7 7 7 8 10 10 13 15 14 12 8 8 10 10 10 12 13 12 12 13 14 15 14 14 14 14 15 15 16 18 19 19 21 23 22 20 19 18 14 12 12 12 12 12 11 8 5 5 5 6 7 7 8 8 8 8 8 7 7 7 7 7 7 6 6 6 6 6 6 6 6
9 6 2 1 3 2 2 3 3 4 4 6 8 9 6 5 10 11 13 12 7 9 9 4 5 6 6 8 9 8 11 12 12 14 14 14 14 13 13 13 13 15 16 17 18 19 21 22 21 20 20 20 20 18 14 13 11 10 10 10 9 7 6 7 8 8 7 6 8 8 8 8 8 7 7 8 8 8 8 8 8 8 8 8 7 8
6 5 3 4 4 2 3 6 4 5 1 5 7 10 9 11 13 4 6 8 4 5 4 4 3 6 5 7 8 9 10 11 11 13 13 13 12 12 12 12 13 14 15 16 17 18 19 20 19 18 18 19 20 20 18 15 13 11 10 10 10 9 9 9 10 10 8 7 7 8 9 9 10 9 8 9 10 10 10 10 10 9 9 9 8 8
5 5 6 7 6 5 5 6 5 7 2 7 8 12 13 15 10 5 6 6 4 6 6 3 6 8 5 5 6 8 10 10 10 11 11 12 12 12 12 12 13 14 14 14 15 17 17 17 16 16 17 18 19 19 18 17 16 14 12 11 10 10 11 12 12 10 9 7 7 9 10 10 11 10 10 10 9 10 10 10 11 11 10 10 10 9
5 7 8 8 6 7 6 7 6 6 4 9 11 13 13 14 11 9 6 7 6 6 7 6 6 6 6 5 5 6 8 9 8 9 9 10 11 11 11 12 13 13 13 14 14 15 15 15 15 14 15 16 18 18 18 17 17 16 15 15 13 11 11 13 14 12 11 10 8 9 10 11 11 10 10 10 9 10 11 10 10 11 11 11 12 11
5 8 9 8 6 6 7 7 5 5 5 12 13 12 11 9 8 7 4 6 5 4 6 5 2 4 6 5 5 5 5 7 7 6 7 8 9 10 10 11 11 11 11 12 13 13 13 13 14 13 14 15 16 16 16 16 16 16 15 16 16 15 15 16 16 15 14 13 12 11 10 10 11 11 11 12 11 11 12 13 11 9 10 10 11 13
7 5 6 8 7 5 5 7 6 3 9 14 12 10 8 6 5 4 2 4 4 4 5 4 2 2 4 5 4 4 4 5 5 5 6 7 8 9 9 10 10 10 10 10 11 11 12 12 13 13 13 13 13 14 14 14 15 16 15 15 15 16 16 16 16 15 15 15 14 14 14 13 12 12 12 13 13 13 12 13 12 11 11 10 9 11
8 5 4 6 7 5 0 4 7 6 10 10 8 6 6 5 5 4 4 4 3 4 3 3 1 2 2 5 5 6 6 4 4 5 6 6 7 8 8 9 9 9 9 9 10 10 10 11 11 12 11 11 11 12 12 13 13 14 15 14 15 15 15 15 14 14 14 15 15 14 15 15 14 13 13 13 14 14 14 14 15 15 15 14 11 11
6 6 6 4 6 8 3 2 6 5 5 5 4 5 4 4 4 4 4 3 2 4 4 3 2 2 3 5 6 8 7 5 4 5 6 6 7 7 7 8 7 7 8 8 8 9 9 10 11 11 10 10 10 11 11 12 13 13 13 14 14 14 14 13 13 14 14 14 14 14 14 14 14 14 14 14 14 15 15 16 16 16 18 18 17 17
4 7 6 2 4 10 9 1 3 3 5 3 4 3 1 3 3 4 4 3 3 5 5 2 2 2 4 4 6 7 5 6 6 5 6 6 6 6 6 6 6 6 7 7 8 8 9 10 10 10 9 9 9 10 10 11 11 11 12 13 13 14 14 14 14 14 14 14 14 14 14 14 14 14 14 14 14 15 15 15 15 16 17 18 19 21
2 5 7 6 4 9 9 6 7 2 2 1 1 2 2 2 1 1 2 3 5 6 6 3 2 2 4 4 5 5 5 6 6 5 6 5 5 5 5 5 5 6 6 6 7 8 8 9 9 8 8 8 8 9 10 10 10 10 11 12 12 13 14 15 15 14 14 14 14 14 14 14 14 14 15 15 15 15 15 15 15 16 17 17 17 19
1 5 6 5 5 7 7 7 6 4 0 2 1 4 1 3 3 1 3 4 3 4 5 3 1 1 2 3 4 4 6 6 6 5 4 4 4 4 3 4 5 5 6 6 6 7 8 8 9 8 7 8 8 8 9 9 9 10 10 11 11 12 13 14 15 15 15 14 14 14 14 14 14 14 14 14 15 15 15 16 16 17 16 16 17 18
1 5 5 4 5 6 5 6 5 3 2 2 3 0 3 4 3 1 3 4 1 3 4 3 2 3 2 4 6 6 7 7 7 6 4 3 4 3 3 4 4 4 5 5 5 6 7 8 8 7 7 7 7 8 8 8 9 9 10 10 10 11 12 13 14 14 14 14 14 15 15 15 15 15 15 14 15 15 14 15 16 16 16 17 17 17
1 4 6 3 5 6 2 1 4 5 5 3 2 4 3 1 1 2 2 2 4 2 4 3 4 4 4 4 7 9 9 8 8 7 6 5 4 3 3 3 4 4 3 3 4 5 6 7 8 7 6 6 7 7 8 8 8 9 9 10 10 10 11 12 13 13 13 14 14 14 15 16 16 16 16 16 15 15 14 14 14 15 15 16 16 17
2 2 6 2 2 4 1 4 3 6 7 5 5 4 1 1 2 2 1 2 3 2 3 4 3 4 5 4 8 11 11 10 9 7 7 6 5 3 2 2 2 2 1 1 2 3 4 6 6 6 5 5 6 7 7 7 7 8 9 9 10 10 10 11 12 12 12 13 13 13 14 15 15 15 16 16 16 15 15 15 15 15 15 15 16 17
2 1 4 3 0 1 1 1 0 4 5 4 4 3 2 3 1 1 1 1 1 2 3 3 3 3 3 4 8 11 11 10 9 7 6 6 5 3 2 1 1 1 1 1 1 2 3 4 4 4 5 5 6 6 7 7 7 8 9 9 10 10 9 10 11 11 12 12 13 13 14 14 15 15 15 16 16 15 15 15 16 16 16 16 16 17
2 2 2 3 2 2 2 5 4 3 3 1 3 2 2 0 1 1 1 2 3 1 2 3 3 2 3 2 6 9 10 10 9 7 6 6 6 4 2 1 1 2 2 2 1 0 1 2 3 3 4 4 5 6 7 7 7 8 8 9 10 10 10 11 11 12 12 13 14 14 14 15 14 15 15 16 16 15 15 15 16 16 17 17 17 17
2 1 1 2 3 3 5 5 4 4 5 3 1 1 1 0 2 2 2 1 2 2 1 0 2 4 4 1 3 7 8 9 9 8 7 7 6 5 3 3 3 3 3 3 3 2 1 1 1 2 3 4 4 5 6 6 7 8 9 10 10 10 11 12 12 13 14 14 15 14 15 15 14 14 15 16 16 15 15 15 15 16 17 18 18 18
3 1 2 3 4 5 7 5 2 2 2 4 5 3 2 1 2 3 1 3 1 0 1 1 1 4 4 0 2 5 8 10 9 8 8 7 6 5 4 4 4 5 4 4 4 4 3 1 1 1 2 3 3 3 4 5 6 7 8 10 10 11 13 13 13 15 15 15 15 15 15 15 14 15 15 16 15 15 15 15 15 16 16 17 18 18
2 2 1 3 4 5 7 6 4 3 3 1 6 4 3 2 3 5 3 1 1 1 1 2 2 3 4 2 3 4 7 9 8 9 9 7 6 6 5 5 5 5 5 5 5 5 4 3 2 1 2 3 3 3 4 5 6 7 8 9 10 12 14 15 15 16 17 17 16 16 15 15 16 16 16 16 16 16 16 16 15 16 16 17 17 18
1 1 1 2 3 5 5 6 6 4 2 2 5 4 3 3 2 2 1 1 1 2 4 3 2 4 4 4 5 6 7 8 8 9 9 7 7 7 6 5 5 6 6 6 6 6 5 4 3 2 3 4 4 4 4 5 6 7 8 9 11 13 15 16 16 18 18 18 17 16 16 16 16 16 16 16 16 17 17 17 16 16 16 17 18 19
1 1 2 3 1 2 2 3 3 2 3 3 4 4 4 4 3 2 2 2 2 2 2 3 4 4 5 6 7 7 7 8 9 10 9 8 8 8 7 6 6 6 6 6 6 6 5 4 3 2 3 3 4 4 4 5 6 7 9 10 12 14 15 17 18 19 18 17 17 16 16 16 17 16 16 17 17 17 17 17 16 16 17 18 19 19
0 3 4 6 5 5 5 6 4 3 1 3 3 4 4 4 5 4 1 2 3 1 1 4 5 2 4 6 7 8 8 8 9 10 10 10 10 9 8 7 7 7 6 6 7 7 6 5 4 4 3 3 4 4 5 6 7 8 10 11 13 14 16 18 19 19 17 16 16 16 16 17 17 16 16 17 18 18 17 16 16 17 18 18 19 20
1 4 4 6 7 6 5 6 3 3 3 3 2 2 3 4 5 5 4 4 3 3 2 6 3 3 1 2 4 6 7 8 9 11 11 11 10 10 9 8 8 8 7 7 8 8 7 6 5 5 4 4 4 5 5 7 8 9 11 12 14 15 16 17 18 17 16 15 15 15 16 17 16 16 16 17 17 18 17 18 18 18 19 19 20 20
0 4 3 3 5 4 3 3 1 3 2 2 2 2 3 4 4 5 4 3 3 4 4 5 4 5 4 2 1 2 4 6 9 10 10 10 9 9 9 9 10 10 9 9 9 9 8 8 7 7 6 5 5 5 6 7 9 11 12 13 14 16 16 16 17 16 16 15 15 15 16 16 16 16 16 16 17 18 18 19 20 20 21 21 21 21
2 3 2 1 4 4 2 1 1 3 3 3 3 2 3 4 4 3 2 2 3 4 4 4 6 7 5 3 3 2 2 4 6 7 9 10 10 10 10 10 10 10 10 10 10 9 9 9 9 8 8 7 6 6 7 8 9 11 13 14 14 15 16 16 16 16 16 16 15 15 16 15 16 16 17 17 17 18 19 20 21 22 22 22 22 22
2 2 0 3 2 4 2 0 2 4 5 5 4 3 3 4 4 3 3 2 4 5 4 4 7 6 1 2 3 2 1 4 6 7 9 11 11 11 11 11 11 11 11 11 10 10 10 9 9 9 9 8 7 7 8 8 10 12 13 14 14 15 16 15 15 15 16 16 15 15 15 15 16 17 17 17 18 19 20 21 22 22 23 23 22 22
0 2 2 5 2 3 2 2 3 4 6 7 7 5 5 5 4 3 2 2 4 5 4 4 6 2 5 3 3 2 3 5 6 7 9 10 10 11 11 12 12 12 12 11 11 11 10 10 10 10 9 8 8 8 9 9 11 12 13 14 14 15 15 15 15 15 15 15 14 14 15 16 16 17 17 18 19 20 20 21 21 22 22 22 22 22
0 1 2 3 2 3 2 3 4 5 6 5 2 2 3 3 4 4 3 3 4 5 5 5 4 5 5 4 4 3 3 5 6 6 7 8 10 11 11 12 12 11 11 11 11 11 10 10 10 10 9 9 9 9 9 10 11 12 13 14 15 14 14 15 15 16 16 16 15 14 15 16 16 17 18 19 20 20 20 20 21 21 21 21 21 22
0 1 1 1 3 2 2 2 4 5 3 2 4 3 3 3 4 5 6 5 4 5 6 7 7 6 5 5 4 4 4 4 5 5 6 7 9 10 11 11 12 11 10 9 9 9 9 9 9 8 8 8 8 9 9 9 10 12 13 14 14 14 15 16 16 16 16 17 16 15 15 16 17 18 18 19 19 19 20 20 20 20 20 20 21 22
1 1 1 1 3 1 1 3 4 2 2 4 3 3 3 2 3 5 8 8 6 7 8 9 9 8 6 5 4 5 5 5 5 6 6 6 7 8 10 10 10 10 9 8 8 8 8 8 8 8 8 8 8 8 9 10 10 11 13 14 14 15 16 17 16 16 16 17 17 16 16 16 17 18 18 18 18 19 19 19 20 20 20 20 21 22
2 1 1 1 2 2 2 3 2 3 3 3 2 2 1 1 2 4 7 7 5 6 7 8 8 7 5 4 2 3 3 3 5 6 6 5 4 6 8 9 9 8 7 7 7 7 8 8 8 8 8 7 7 8 9 10 11 12 14 15 15 16 17 17 16 16 17 17 17 16 16 17 17 17 17 17 17 17 18 19 20 21 20 21 21 21
4 3 2 1 1 2 4 3 3 4 2 4 2 2 2 2 1 2 6 5 1 2 5 7 7 4 3 2 1 2 2 3 6 4 2 0 3 4 5 6 7 6 6 6 6 7 7 7 7 8 8 7 8 8 9 10 12 14 16 15 15 16 17 17 16 17 17 17 17 17 16 16 16 16 16 16 17 18 18 20 21 20 20 20 21 21
4 3 2 2 1 2 4 4 3 4 1 3 4 4 2 1 2 1 6 4 1 1 4 5 4 3 2 1 0 0 2 5 5 2 8 6 4 4 5 6 6 6 7 6 6 7 8 8 8 8 8 8 7 8 9 11 14 16 16 15 15 17 18 16 15 16 17 16 16 16 16 16 16 16 16 16 17 18 19 20 20 20 20 21 21 21
4 3 3 4 3 3 4 5 3 3 2 3 5 5 4 2 1 2 6 2 4 3 2 3 3 2 2 1 1 2 3 5 3 6 10 7 5 5 6 7 6 7 7 7 8 9 8 9 8 7 7 8 8 8 10 13 15 16 15 15 17 18 17 16 15 16 17 17 17 17 16 17 17 16 17 18 18 19 19 19 20 20 21 22 21 20
4 3 4 5 4 2 3 5 3 2 1 4 5 5 5 4 2 5 5 2 5 4 1 2 4 3 3 2 3 3 4 5 5 7 8 6 6 6 7 7 5 6 6 7 8 8 8 8 8 7 7 7 7 8 11 14 15 15 15 16 17 18 16 15 15 16 17 17 16 17 17 16 16 17 17 18 18 18 18 19 19 19 21 22 21 20
4 3 3 4 4 2 2 5 5 2 2 5 6 7 8 5 4 4 3 5 4 2 1 1 4 4 3 4 5 5 6 5 4 4 4 5 6 6 7 7 6 6 6 6 8 9 8 7 7 8 8 8 9 10 11 14 15 15 16 16 17 17 16 15 15 15 16 17 17 17 17 16 17 17 17 17 17 18 18 18 19 19 20 21 21 22
3 3 3 3 4 2 2 4 5 1 3 5 7 8 7 4 2 2 4 5 2 1 1 1 3 3 4 6 6 7 7 4 2 4 5 5 5 6 6 7 6 6 7 8 9 10 9 8 8 8 8 9 11 11 11 13 16 16 16 17 18 17 16 15 15 16 16 16 17 17 17 17 17 18 18 17 17 18 18 18 18 19 19 20 21 23
0 2 3 3 2 2 3 4 4 3 3 9 10 7 6 5 4 6 2 2 2 1 0 1 2 2 4 6 6 7 7 6 5 6 6 6 6 6 6 6 6 6 7 8 9 9 8 8 8 8 9 10 12 12 12 15 17 17 16 17 18 17 16 16 16 16 16 17 17 17 18 18 18 18 17 18 18 18 17 18 18 18 18 19 20 22
1 3 4 0 1 2 3 2 1 4 6 14 11 2 5 7 2 5 2 1 2 1 2 2 1 2 4 5 6 6 7 7 7 7 7 7 7 6 6 6 6 7 7 7 7 8 9 9 9 9 11 13 13 13 14 15 17 18 18 18 17 16 17 17 16 16 16 17 17 18 18 19 19 19 18 17 17 17 17 17 18 18 18 18 19 20
2 0 4 2 1 3 6 5 3 4 4 12 12 7 4 7 7 6 5 5 3 2 2 3 2 2 4 5 6 6 7 7 7 7 7 7 7 6 6 6 6 7 8 8 8 9 10 10 10 12 13 14 15 15 15 15 17 19 18 17 16 16 16 16 16 16 17 18 18 18 19 20 20 20 19 18 17 16 16 17 17 18 18 18 18 18
2 1 1 2 1 2 7 8 5 3 2 7 12 12 9 9 11 10 8 8 6 3 3 4 4 2 3 5 5 6 7 6 6 7 7 7 8 7 7 7 7 8 8 8 9 10 10 11 12 14 16 17 17 16 16 16 17 18 17 15 15 15 15 15 16 17 17 18 18 18 19 20 20 20 19 17 16 16 16 16 16 17 18 17 17 17
4 4 3 4 2 2 4 4 2 2 3 4 7 10 11 12 14 13 12 11 8 6 6 5 5 4 4 6 7 7 7 7 7 8 8 8 8 8 8 8 8 8 9 9 10 11 12 13 15 16 18 20 20 18 17 15 15 16 15 14 14 15 14 14 15 17 18 18 18 18 18 19 20 20 19 18 17 17 16 15 16 16 17 17 17 16
4 4 4 6 4 5 8 8 5 5 6 7 8 8 8 9 10 11 12 12 10 10 10 9 8 7 6 7 7 8 9 8 8 9 9 9 9 9 8 9 9 9 10 10 11 13 14 15 17 18 19 20 20 19 18 16 15 16 15 14 14 14 14 14 15 17 18 18 18 18 17 18 20 20 19 19 19 18 16 15 15 16 16 17 17 17
3 3 4 4 5 8 10 8 6 6 5 4 4 4 5 6 6 7 8 9 8 8 9 10 10 9 9 9 8 9 10 10 9 10 10 10 10 10 9 9 9 10 10 11 12 13 14 16 17 18 20 21 21 20 19 17 17 17 16 15 15 14 14 15 15 16 18 18 18 17 17 17 19 19 19 19 19 18 17 16 16 16 14 15 16 16
3 6 5 3 6 6 4 3 4 4 5 3 3 4 4 5 7 7 6 6 5 5 5 8 10 10 10 11 10 10 11 11 10 10 11 11 11 10 10 10 10 11 11 12 13 14 15 16 17 19 21 22 21 21 21 19 18 18 17 17 17 16 15 15 15 16 17 19 19 18 17 18 19 19 19 19 19 19 18 18 18 18 17 15 15 15
7 8 7 5 7 7 6 5 4 3 5 5 5 6 6 7 8 7 6 5 4 3 3 4 7 8 9 10 11 11 11 11 11 11 11 11 11 11 11 12 12 12 13 13 15 17 18 18 19 21 21 20 19 21 22 20 19 20 19 18 19 18 17 16 16 16 18 19 19 19 18 19 19 19 18 19 19 19 19 19 19 19 19 19 18 15
Wind_Direction
258 65 53 35 28 25 25 14 8 23 43 149 147 110 104 106 110 109 105 106 102 94 93 96 95 88 83 80 78 95 113 115 114 114 111 108 105 101 97 92 87 81 76 72 68 65 62 59 54 50 41 31 26 26 24 25 21 12 3 349 336 327 317 312 316 321 320 315 309 307 303 294 295 288 284 288 289 289 292 298 302 301 308 320 320 303
281 46 50 32 25 19 19 17 17 59 98 141 128 115 115 114 112 107 108 122 117 105 103 101 94 87 86 87 86 96 105 104 107 112 110 106 102 97 95 90 86 83 79 75 71 68 67 63 57 52 44 36 31 23 16 18 14 358 343 337 330 318 308 302 311 317 313 309 303 299 292 284 281 275 271 274 279 284 286 289 294 295 306 322 330 326
83 52 38 22 14 9 66 59 52 76 96 133 120 109 108 125 121 97 100 116 115 111 112 103 93 88 88 87 86 89 92 93 95 98 103 104 97 88 85 84 86 85 79 74 70 66 66 66 61 55 48 40 35 29 23 24 22 15 360 340 324 314 309 306 314 318 308 304 299 295 289 283 281 276 271 271 275 283 283 280 280 285 295 309 320 320
75 48 28 18 301 252 106 93 117 109 95 68 104 118 128 151 151 121 124 126 112 115 119 108 96 87 90 89 83 86 96 100 95 89 90 93 88 82 80 79 81 82 78 74 69 65 62 59 53 50 47 40 36 34 29 27 29 28 25 16 358 331 324 317 313 314 306 301 300 298 295 291 286 282 277 273 271 268 269 273 275 277 281 287 296 297
69 47 22 34 331 318 89 110 241 115 91 47 42 102 147 168 147 130 133 121 107 120 125 115 98 77 75 85 88 93 100 104 105 99 90 86 85 83 80 77 75 74 71 65 58 53 49 46 43 41 40 38 37 37 31 27 29 29 28 26 22 2 331 307 295 295 295 299 302 303 302 297 290 285 279 270 265 267 270 273 274 277 277 276 282 281
68 55 351 28 61 30 61 82 359 334 101 68 50 92 144 140 109 114 126 124 125 136 145 148 104 84 73 87 101 108 105 105 105 100 93 88 86 82 77 73 69 65 61 57 51 46 43 42 40 37 37 37 38 37 31 28 29 27 25 22 20 12 339 307 293 286 282 288 295 296 292 284 276 272 268 262 261 266 270 271 271 273 275 275 276 274
64 63 13 19 41 49 70 81 30 323 105 97 86 114 132 105 86 81 146 144 160 130 150 235 157 118 108 95 103 110 104 102 100 95 91 88 83 76 71 65 61 59 55 52 50 46 44 43 41 38 36 35 36 37 34 30 28 25 23 19 13 8 356 344 329 312 300 289 284 286 285 278 274 269 267 270 268 265 264 265 268 271 274 276 276 276
40 47 35 23 25 38 42 51 18 323 29 108 133 131 125 117 114 237 219 157 143 108 104 138 126 120 119 106 112 117 107 102 97 91 87 84 79 72 67 62 58 56 53 51 48 46 46 45 44 40 34 33 32 35 34 31 29 25 22 19 15 12 7 5 0 349 337 320 298 288 285 283 281 276 276 282 283 280 273 264 264 269 275 280 281 282
33 34 26 8 20 45 26 16 4 327 61 116 145 134 132 140 154 212 206 135 141 129 98 96 114 118 118 130 146 138 117 107 100 93 86 80 75 68 62 60 59 57 55 54 51 49 48 46 46 42 36 33 32 33 33 31 28 25 23 21 19 19 16 13 13 10 3 354 338 314 300 294 290 287 287 291 292 288 288 286 280 277 279 282 284 288
58 43 28 11 17 33 23 19 351 318 85 125 145 136 143 151 159 202 181 125 148 129 93 91 126 126 120 142 166 162 142 121 109 99 89 80 72 65 60 56 56 58 58 57 55 52 50 48 46 42 37 32 32 33 32 30 27 23 23 21 20 20 17 16 15 11 7 7 5 354 338 323 311 303 300 300 298 290 290 293 293 293 288 282 283 287
98 83 50 35 17 5 22 36 28 49 110 132 144 140 150 147 159 198 147 143 156 108 92 89 110 144 137 156 165 143 125 118 121 114 99 89 75 64 59 57 55 57 58 58 58 55 52 49 43 39 35 30 29 30 30 29 26 24 23 21 20 20 18 16 15 11 8 8 8 5 1 355 344 330 315 307 302 297 295 291 289 295 296 290 289 290
113 113 92 56 22 7 39 66 61 97 126 141 152 151 157 147 161 176 158 190 175 111 111 103 143 260 156 155 156 126 119 119 124 119 109 93 75 65 60 58 57 59 60 58 58 56 52 47 39 35 32 30 28 26 26 24 23 24 22 21 20 18 18 17 13 11 10 8 8 5 2 0 357 350 337 324 314 307 304 299 293 292 292 292 293 294
95 76 86 100 49 16 309 154 101 131 159 167 172 171 168 147 156 161 149 170 120 111 130 127 221 267 84 113 136 133 134 129 114 103 101 89 74 69 66 66 66 64 64 63 60 56 50 41 33 30 30 30 28 24 23 20 18 20 18 19 20 16 15 14 10 8 6 4 4 2 360 358 356 354 348 342 334 326 320 314 306 296 288 285 283 283
116 90 56 58 61 8 339 331 98 140 166 167 167 183 176 115 143 152 134 133 116 121 139 158 256 194 117 118 135 140 136 128 126 109 92 83 76 73 68 72 78 73 69 66 61 53 45 36 28 29 33 33 29 24 20 16 16 18 16 18 22 18 16 15 13 9 4 2 1 358 357 354 353 351 348 344 338 334 330 326 322 313 302 293 285 282
125 103 41 19 20 4 5 10 3 12 139 89 358 290 332 46 86 150 138 129 121 127 145 167 243 172 139 130 134 143 145 140 142 124 101 88 85 82 77 80 81 79 74 67 63 52 41 33 28 33 38 34 28 21 17 16 18 21 19 20 24 23 21 19 18 15 10 8 4 360 357 353 350 348 346 344 339 334 329 325 324 321 316 310 302 295
64 87 61 47 28 11 30 34 354 311 104 82 283 279 343 18 6 71 46 42 91 142 146 152 203 96 98 131 152 167 169 163 155 138 126 108 98 90 83 82 76 78 73 63 58 47 37 31 30 36 37 32 27 20 18 19 22 26 23 20 23 24 22 21 19 18 15 12 9 5 1 359 355 349 346 343 339 335 330 326 324 321 320 316 311 307
129 100 96 105 82 44 31 39 28 328 321 150 197 309 54 17 340 145 90 47 251 189 134 152 194 148 163 184 180 189 185 175 173 166 157 133 121 113 95 85 76 74 66 52 46 37 30 26 27 31 30 26 26 23 22 23 23 25 23 19 19 18 17 16 16 15 14 12 10 7 3 1 358 355 350 343 337 335 332 329 326 323 321 318 314 309
315 115 111 98 79 71 31 328 68 39 343 288 142 91 86 59 308 247 109 131 216 170 123 188 206 178 200 187 172 189 193 187 187 184 170 160 158 141 112 92 77 73 63 49 38 29 26 23 20 23 24 23 26 27 24 25 24 21 20 18 15 13 13 11 11 11 11 9 8 6 3 1 359 358 355 349 342 336 332 331 327 323 321 318 317 313
320 142 124 103 31 77 117 231 142 69 24 17 83 102 234 203 148 175 133 170 195 120 131 181 184 211 226 181 170 190 194 190 189 189 182 175 174 167 141 115 98 87 79 55 26 21 21 19 17 20 25 22 23 26 22 22 23 18 18 17 14 14 12 10 10 9 7 6 4 1 359 358 357 355 353 352 350 343 336 333 331 328 324 320 319 318
311 271 118 92 315 147 66 346 123 86 68 78 116 148 280 331 9 114 101 292 264 132 151 159 165 217 215 160 171 185 189 189 189 191 190 185 183 190 197 177 160 169 178 232 334 19 13 13 16 15 22 20 15 17 16 16 17 14 14 13 12 13 10 6 5 2 359 357 355 352 350 348 346 346 346 347 347 347 343 338 335 331 326 323 322 321
298 298 97 86 120 184 50 36 23 22 55 144 183 161 129 46 330 100 109 318 311 202 159 160 165 134 75 120 167 173 181 186 186 191 191 192 195 195 204 217 207 198 196 220 249 236 348 4 15 10 12 12 8 10 10 10 11 9 8 7 6 6 2 359 356 353 349 346 343 341 339 338 338 338 338 337 338 340 339 338 336 332 329 326 324 323
311 328 99 88 81 80 63 53 25 9 13 3 14 66 55 129 217 217 157 141 315 328 359 214 152 96 59 34 174 164 176 184 184 189 193 197 200 201 207 210 217 225 215 214 219 208 216 335 4 3 3 1 360 3 3 5 6 3 1 359 359 358 355 351 348 346 342 337 335 332 330 330 330 330 330 330 330 330 330 333 334 333 331 327 324 323
314 308 96 87 71 79 85 84 58 350 355 21 48 40 338 352 300 302 55 134 162 6 326 288 146 97 78 95 207 171 173 183 184 187 197 202 201 206 213 207 211 226 226 214 207 202 207 225 272 330 349 349 347 349 351 353 353 352 354 353 352 350 347 344 341 339 335 331 327 325 323 324 323 323 325 325 323 321 323 326 328 330 331 328 326 324
267 273 106 111 111 120 124 124 138 199 229 101 67 43 12 30 350 346 20 96 142 80 279 237 147 105 102 145 211 178 168 183 185 188 202 205 198 206 215 208 208 217 219 212 202 199 207 219 234 288 340 342 337 334 336 339 341 343 346 347 346 343 340 337 334 332 331 326 322 320 319 318 318 319 321 322 319 316 317 320 322 325 327 327 327 325
259 302 283 185 146 146 160 154 147 156 167 78 67 54 42 36 341 337 19 223 121 46 317 300 94 100 118 162 185 177 182 193 189 194 208 209 202 208 216 214 206 210 212 207 203 203 209 221 243 287 333 341 340 336 332 332 336 337 338 339 339 337 336 334 329 328 326 323 321 319 317 317 317 316 317 319 318 315 315 317 318 320 323 324 325 326
311 7 334 305 358 105 126 108 92 91 97 87 74 65 56 30 346 304 234 209 100 91 294 341 47 94 131 169 186 186 199 205 200 203 209 213 212 213 218 215 205 209 212 208 209 212 217 231 251 276 309 333 340 340 336 332 332 333 333 333 332 332 332 332 329 327 324 321 319 319 319 319 318 315 315 316 317 317 316 316 317 318 318 320 322 325
342 69 13 358 24 38 58 71 46 349 33 98 83 68 58 31 2 338 301 60 52 217 160 60 33 56 129 161 188 195 205 212 211 210 210 214 215 214 219 219 213 216 218 215 218 221 227 239 253 265 284 320 331 331 333 330 327 329 330 330 330 329 327 328 330 329 323 320 318 317 318 320 319 317 316 315 317 318 317 317 316 316 316 317 320 321
160 91 26 18 45 43 46 69 36 329 8 49 50 53 48 30 12 12 44 50 348 285 89 72 28 318 68 128 183 200 210 216 217 218 219 219 217 216 220 221 223 227 226 226 228 232 238 246 255 262 274 300 312 318 321 322 323 324 325 328 329 329 326 326 329 329 325 321 318 315 317 318 319 319 317 316 317 317 316 315 315 315 315 316 317 318
339 89 39 17 73 64 34 49 352 321 358 351 325 347 6 3 2 20 47 43 333 327 23 37 350 315 317 312 258 215 219 229 228 225 224 224 223 223 225 227 233 236 235 234 234 237 242 249 254 259 268 283 295 305 309 314 319 320 321 325 328 329 328 326 327 327 325 322 317 315 316 316 317 318 318 317 317 316 315 315 314 314 314 314 315 314
328 87 64 319 112 98 50 40 301 295 298 284 283 306 319 323 331 339 348 340 311 311 329 339 320 305 301 310 314 312 256 250 247 235 227 227 229 231 235 241 245 246 247 246 244 243 242 245 250 255 264 274 280 292 300 308 315 317 321 324 328 331 330 327 326 324 323 320 317 316 316 316 317 318 318 317 317 317 316 315 314 313 313 313 314 313
299 91 80 261 179 116 83 331 260 279 292 287 279 268 271 286 286 274 279 274 268 277 286 300 297 292 59 53 333 307 263 247 242 233 229 231 235 238 243 251 256 257 259 257 257 255 248 245 248 252 261 270 273 283 294 302 310 316 321 324 327 329 329 328 325 323 323 321 318 318 318 319 319 319 319 318 317 317 316 315 315 314 314 314 314 314
298 123 186 250 246 107 114 265 267 276 278 271 266 257 247 255 269 280 288 267 269 289 295 279 287 337 67 45 317 266 236 244 239 232 232 233 237 242 247 256 261 263 263 262 263 263 255 250 253 256 262 269 274 283 291 299 308 316 319 323 326 327 326 327 324 324 325 323 320 320 320 320 320 319 320 319 318 318 317 318 318 317 316 316 315 317
354 149 174 251 292 92 107 291 281 267 263 249 252 298 276 263 279 286 278 254 253 274 287 286 317 12 16 336 301 268 245 249 245 241 243 244 247 250 253 260 267 266 264 264 264 262 258 258 261 261 262 268 275 283 290 295 304 313 318 322 325 325 324 323 322 324 325 324 325 323 320 320 320 319 320 319 318 318 318 319 319 318 317 317 317 319
265 304 71 307 309 89 106 283 260 252 270 72 73 33 356 324 300 288 288 288 260 248 272 293 305 317 317 304 296 292 284 276 268 262 266 266 262 260 261 266 271 269 265 261 255 253 255 258 259 259 262 271 275 277 283 292 302 312 320 322 321 321 323 322 321 323 324 324 325 322 319 319 320 319 320 319 319 319 319 320 319 318 318 317 318 320
204 283 81 309 308 338 146 244 251 272 39 78 86 64 32 343 309 297 293 289 274 259 266 278 284 293 308 308 300 302 303 300 290 274 266 266 262 265 270 272 271 268 263 254 246 245 250 254 258 262 268 274 272 271 284 299 306 312 319 322 320 321 324 323 322 324 323 323 324 322 320 319 319 320 320 321 321 322 322 321 319 318 318 316 318 321
238 241 218 268 302 303 263 253 295 347 50 109 119 100 105 245 246 274 284 278 265 266 267 273 284 300 312 307 310 328 330 312 286 265 254 259 271 276 277 278 276 271 263 256 250 247 252 259 264 269 273 275 271 277 293 303 308 313 319 321 321 322 325 324 324 325 325 324 324 323 321 320 321 322 322 324 325 325 323 321 320 320 319 317 318 321
247 244 242 255 264 296 295 287 297 300 220 155 145 142 170 250 258 283 294 295 277 277 278 280 289 296 291 296 2 3 337 294 274 252 169 85 311 302 288 281 280 275 264 257 253 251 258 266 269 277 283 278 272 284 297 300 309 319 322 321 321 323 326 326 325 326 326 326 326 325 324 324 324 324 326 326 327 325 323 322 321 320 320 320 322 322
237 257 269 265 228 262 296 297 287 289 261 124 107 105 114 341 13 304 286 279 130 53 305 286 280 271 255 239 130 298 292 279 274 87 85 63 357 334 311 290 278 274 269 264 265 268 271 274 277 283 289 283 278 288 295 301 314 322 321 320 322 324 326 327 327 328 328 328 328 327 327 326 326 327 328 327 326 324 323 322 321 321 322 323 323 322
215 241 250 260 244 231 276 292 295 309 349 84 100 107 123 140 139 249 272 269 91 57 331 268 250 250 252 230 201 253 279 280 302 60 69 44 360 348 327 310 291 279 278 277 281 284 281 281 286 285 281 284 288 289 294 307 318 321 318 318 323 326 327 327 328 329 329 328 327 326 326 326 325 326 326 326 325 323 323 324 322 322 324 324 323 322
196 210 223 246 251 226 260 286 291 293 14 96 110 120 126 132 181 250 274 43 71 54 11 239 248 252 250 230 216 247 283 300 337 31 44 17 352 351 340 331 313 294 293 289 288 291 285 281 285 282 276 282 288 289 299 311 317 317 316 318 323 326 327 326 328 329 328 327 326 326 326 326 325 324 324 324 324 323 325 326 324 324 327 326 324 324
197 204 227 258 267 229 230 276 286 286 100 106 120 132 134 145 212 261 342 42 56 58 84 238 260 254 237 231 229 261 304 329 337 348 356 343 337 341 342 342 334 316 310 302 296 300 296 283 279 280 278 281 288 294 302 310 314 316 317 319 322 325 325 325 328 330 329 328 328 327 328 328 326 325 324 323 323 325 326 326 325 325 327 326 325 327
203 198 205 240 268 261 260 284 286 294 100 111 120 129 149 189 271 353 40 52 51 46 92 210 263 258 237 239 247 269 301 327 303 288 303 312 320 327 330 332 329 319 316 314 312 312 305 286 277 281 282 285 294 298 300 305 313 317 318 320 323 323 323 324 327 329 328 328 328 328 329 329 328 326 325 324 324 325 325 325 326 327 327 326 327 329
217 256 235 202 218 256 263 268 282 321 115 144 138 134 182 228 354 24 45 117 115 83 282 223 245 252 242 250 259 266 280 290 282 283 290 291 299 309 311 316 316 309 309 311 311 312 310 294 280 280 286 290 293 294 295 306 317 320 318 321 323 321 321 322 323 325 327 328 329 329 329 330 330 328 326 325 323 323 323 323 324 326 326 327 329 332
186 259 279 258 150 248 274 265 353 33 127 164 172 190 214 219 300 356 322 247 131 168 279 293 259 232 239 256 267 270 276 281 280 281 284 285 289 294 298 308 311 307 306 303 297 299 303 298 284 282 292 294 290 289 296 308 318 320 318 320 322 320 319 319 317 318 323 326 328 329 329 331 332 330 328 326 323 321 321 322 322 324 326 328 330 333
179 309 325 324 198 251 294 306 354 35 134 184 217 267 255 223 245 261 271 294 291 233 273 308 300 237 232 251 267 272 275 279 280 279 279 283 286 287 291 298 301 303 306 302 298 301 303 298 290 289 293 290 283 287 298 306 313 318 319 321 322 319 316 315 313 312 316 321 324 327 328 330 332 332 330 328 326 323 321 322 322 322 324 327 329 331
163 127 315 302 276 267 277 274 271 281 229 208 233 254 256 253 259 258 259 273 280 267 266 283 294 276 238 247 262 271 274 277 279 278 277 279 282 283 288 293 296 299 300 298 299 301 299 294 291 292 294 291 285 289 298 302 306 313 316 318 321 320 315 312 310 308 308 312 318 322 325 327 330 332 332 331 330 327 324 323 322 321 322 325 327 330
168 167 219 254 273 291 273 260 237 251 259 246 252 256 253 254 260 265 267 268 268 264 258 256 263 263 251 252 259 268 276 280 279 282 283 281 281 282 283 285 288 291 292 291 291 295 298 297 294 294 296 294 291 292 295 294 296 303 307 312 318 319 313 308 307 306 304 306 310 314 318 324 328 331 332 331 330 328 327 326 324 322 321 321 324 329
136 160 241 250 242 266 283 286 293 294 282 271 268 267 265 265 264 266 271 273 270 264 257 249 247 251 254 258 262 268 276 279 281 286 287 283 280 279 279 281 284 285 287 289 292 297 301 299 298 298 296 292 291 292 290 288 292 296 299 304 310 312 309 306 304 303 302 303 306 309 312 319 325 327 328 329 329 328 327 326 326 325 322 319 321 329
111 191 256 269 265 275 283 289 302 306 290 269 266 272 283 290 285 272 274 277 272 266 257 248 248 256 263 267 268 270 275 280 282 284 285 283 278 275 276 280 282 283 286 290 296 302 302 301 302 302 297 293 294 291 285 285 291 293 293 300 304 302 302 303 301 301 304 308 309 308 308 313 319 322 323 325 327 327 324 323 324 325 324 319 319 326
207 257 267 263 264 275 298 351 6 329 296 301 342 341 324 309 294 284 286 286 278 275 264 249 251 262 271 277 281 279 278 282 285 283 282 281 277 274 277 279 281 284 288 291 297 301 300 301 303 302 298 299 300 295 287 284 290 292 291 296 301 298 296 299 301 302 308 314 313 308 305 306 311 316 318 321 325 326 325 325 325 325 325 323 320 320
245 277 282 270 277 296 319 343 360 314 287 299 323 329 330 326 312 302 301 298 289 296 291 261 256 264 274 284 292 293 288 287 286 285 285 283 280 278 279 280 283 287 288 292 299 300 298 299 302 304 306 309 306 299 291 285 287 291 290 291 296 295 291 295 299 301 307 314 312 306 301 300 304 309 312 316 320 324 325 327 327 326 325 325 323 320